Location: Batang Balui
(2.7000°N, 113.7833°E)
Time: 18:23:17
(UTC+00:00)

CZ-4 DEB - Pass Details

Date: 30 November 2023
Orbit: 686 x 830 km, 98.7° (Epoch: 22 February)

Event Time Altitude Azimuth Distance (km) Brightness Sun altitude
Rises 11:17:16 0° 140° (SE) 3,248 ? -15.8°
Reaches altitude 10° 11:20:14 10° 122° (ESE) 2,291 ? -16.5°
Enters shadow 11:20:25 11° 121° (ESE) 2,236 ? -16.6°
